www.pogodaiklimat.ru
ПОГОДА в Вунстдрехте
Время
(UTC), дата
13 10.02
14 10.02
15 10.02
17 10.02
16 10.02
18 10.02
19 10.02
20 10.02
21 10.02
23 10.02
22 10.02
00 11.02
01 11.02
02 11.02
03 11.02
05 11.02
04 11.02
06 11.02
07 11.02
08 11.02
09 11.02
11 11.02
10 11.02
12 11.02
13 11.02
14 11.02
15 11.02
17 11.02
16 11.02
18 11.02
19 11.02
20 11.02
21 11.02
23 11.02
22 11.02
00 12.02
01 12.02
02 12.02
03 12.02
05 12.02
04 12.02
06 12.02
07 12.02
08 12.02
09 12.02
11 12.02
10 12.02
12 12.02
13 12.02
14 12.02
15 12.02
17 12.02
16 12.02
18 12.02
19 12.02
20 12.02
21 12.02
23 12.02
22 12.02
00 13.02
01 13.02
02 13.02
03 13.02
05 13.02
04 13.02
06 13.02
07 13.02
08 13.02
09 13.02
11 13.02
10 13.02
12 13.02
13 13.02
14 13.02
15 13.02
17 13.02
16 13.02
18 13.02
19 13.02
20 13.02
21 13.02
23 13.02
22 13.02
00 14.02
01 14.02
02 14.02
03 14.02
05 14.02
04 14.02
06 14.02
07 14.02
08 14.02
09 14.02
11 14.02
10 14.02
12 14.02
13 14.02
14 14.02
15 14.02
17 14.02
16 14.02
18 14.02
19 14.02
20 14.02
21 14.02
23 14.02
22 14.02
00 15.02
01 15.02
02 15.02
03 15.02
05 15.02
04 15.02
06 15.02
07 15.02
08 15.02
09 15.02
11 15.02
10 15.02
12 15.02
13 15.02
14 15.02
15 15.02
17 15.02
16 15.02
18 15.02
19 15.02
20 15.02
21 15.02
23 15.02
22 15.02
00 16.02
01 16.02
02 16.02
03 16.02
05 16.02
04 16.02
06 16.02
07 16.02
08 16.02
09 16.02
11 16.02
10 16.02
12 16.02
13 16.02
14 16.02
15 16.02
17 16.02
16 16.02
18 16.02
19 16.02
20 16.02
21 16.02
23 16.02
22 16.02
00 17.02
01 17.02
02 17.02
03 17.02
05 17.02
04 17.02
06 17.02
07 17.02
08 17.02
09 17.02
11 17.02
10 17.02
12 17.02
13 17.02
Ветер
(напр.,м/с)
Видим. Явления Облачность Т
(С)
Тd
(С)
f
(%)
Тe
(С)
Тes
(С)
Комфортность P
(гПа)
Po
(гПа)
Тmin
(С)
Tmax
(С)
R
(мм)
R24
(мм)
S
(см)
ЮЗ 12-18
{22}
16 км 1/1 1000 м
[]
+9.3 +2.4 62 +4 +4 1000.6 998.8
ЮЗ 11-16
{19}
21 км 10/10
[]
+9.5 +2.2 60 +5 +5 1000.0 998.0
ЮЗ 10-17
{22}
22 км слаб. ливневой дождь 10 баллов +8.8 +3.8 71 +4 +4 999.5 997.4
ЮЗ 9-16
{19}
45 км {ливн. осадки} 10/9 600 м
[]
+7.6 +3.5 75 +3 +3 995.7 994.0
ЮЗ 7-13
{19}
30 км в посл. час дождь 10/10 600 м
[]
+7.9 +4.1 77 +4 +4 997.7 995.9 0.2
ЮЗ 11-15
{22}
45 км {ливн. осадки} 10 баллов +7.9 +3.2 72 +3 +3 995.3 993.4 +9.9 0.6
ЮЗ 9-13
{16}
10 км морось с дождем 10/6 600 м
[]
+7.1 +4.2 82 +2 +2 994.6 992.7 0.1
З 12-19
{20}
14 км ливневой дождь {морось} 9/6 600 м
[]
+7.2 +4.3 82 +1 +1 994.8 992.7 0.6
З 9-12
{22}
45 км ливневой дождь {морось} 10 баллов +5.3 +2.8 84 -1 -1 996.3 994.2 0.3
З 13-18
{18}
29 км {ливн. осадки, дождь} 8/6 1000 м
[]
+5.5 +0.8 72 -1 -1 998.3 996.3
З 10-15
{17}
40 км в посл. час осадки {ливн. осадки} 9/9
[]
+4.5 +2.3 86 -2 -2 997.0 994.9 0.4
З 13-19
{22}
23 км {ливн. осадки, дождь} 10 баллов +5.9 +0.5 68 -1 -1 999.3 997.3 1
З 13-18
{21}
23 км 8/8 1500 м
[]
+5.6 -0.1 67 -1 -1 1000.1 998.1
З 14-20
{20}
20 км 10/10 1500 м
[]
+5.8 -0.6 63 -1 -1 1000.7 998.8
З 12-17
{21}
19 км 10 баллов +5.6 -0.1 67 -1 -1 1001.3 999.4
З 12-16
{17}
19 км 9/9 1500 м
[]
+5.9 -1.1 61 -0 -0 1002.2 1000.3
З 11-17
{19}
19 км 9/9 1500 м
[]
+5.6 -0.2 66 -1 -1 1001.8 999.9
З 12-15
{21}
18 км 10 баллов +5.7 -0.4 65 -1 -1 1002.7 1000.8 +4.4 1 2.0
З 12-16
{17}
20 км 10/9 1000 м
[]
+5.6 -0.5 65 -1 -1 1003.4 1001.5
З 10-14
{18}
18 км 9/9 1000 м
[]
+5.5 +0.2 69 -1 -1 1004.0 1002.1
З 10-14
{18}
20 км в посл. час морось 10 баллов +5.7 +0.1 67 -0 -0 1004.5 1002.5
З 13-18
{20}
21 км 9/9 1000 м
[]
+6.4 -0.3 62 0 0 1005.8 1003.9
З 12-17
{18}
20 км 10/10 1000 м
[]
+6.2 -0.5 62 0 0 1005.0 1003.1
З 13-17
{20}
24 км 10 баллов +7.3 -0.4 58 +2 +2 1005.9 1004.0
З 12-15
{18}
29 км 9/8 1000 м
[]
+6.9 -0.3 60 +1 +1 1006.0 1004.1
З 12-18
{18}
24 км 4/4 1500 м
[]
+7.0 -0.8 58 +1 +1 1006.0 1004.0
З 12-16
{19}
28 км в посл. час дождь 6 баллов +7.1 -0.7 58 +1 +1 1006.2 1004.3 0.1
З 12-17
{20}
40 км в посл. час дождь {ливн. осадки} 9/9
[]
+6.4 -1.6 57 +1 +1 1007.2 1005.3 0.1
З 11-17
{19}
30 км в посл. час дождь 9/9 1500 м
[]
+5.7 -0.6 64 -0 -0 1006.5 1004.6 1
З 10-17
{20}
45 км {ливн. осадки} 9 баллов +5.8 -1.5 59 0 0 1008.0 1006.0 +7.7 1
З 11-14
{15}
40 км 9/9 1500 м
[]
+6.3 -1.6 57 +1 +1 1008.6 1006.7
З 10-14
{16}
45 км 10/10 1500 м
[]
+5.8 -1.0 62 0 0 1009.3 1007.4
З 10-13
{17}
35 км 9 баллов +5.7 -0.9 62 -0 -0 1009.5 1007.7
З 10-13
{14}
23 км 3/3 1000 м
[]
+4.8 -0.6 68 -1 -1 1010.2 1008.2
ЮЗ 10-14
{15}
26 км 9/9 1000 м
[]
+5.5 -0.4 66 -0 -0 1009.9 1008.0
З 10-14
{17}
23 км 8 баллов +4.9 -0.4 69 -1 -1 1010.3 1008.3
ЮЗ 8-11
{13}
25 км 10/10 1500 м
[]
+4.8 -0.3 70 -1 -1 1010.6 1008.6
З 8-12
{12}
20 км 10/10
[]
+4.8 +0.2 72 -1 -1 1010.6 1008.7
З 9-13
{14}
26 км 10 баллов +5.1 -0.1 69 -1 -1 1010.9 1009.0
З 8-13
{15}
25 км 10/10
[]
+5.0 -0.1 70 -1 -1 1011.5 1009.6
З 9-13
{13}
30 км 10/10 1000 м
[]
+5.3 -0.1 68 -0 -0 1011.3 1009.2
З 7-9
{15}
25 км 10 баллов +4.9 +0.4 73 -0 -0 1012.1 1010.1 +4.2 1.2
ЮЗ 6-10
{10}
29 км 10/10 1000 м
[]
+4.6 +0.3 74 -1 -1 1012.5 1010.6
ЮЗ 6-10
{10}
30 км 10/9 1000 м
[]
+4.7 +0.4 74 -0 -0 1013.1 1011.2
ЮЗ 6-9
{10}
26 км 10 баллов +4.7 +0.5 74 -0 -0 1013.6 1011.7
З 11-16
{16}
28 км 10/9
[]
+7.0 +0.6 64 +1 +1 1014.6 1012.6
ЮЗ 8-11
{11}
24 км 9/6 1000 м
[]
+5.7 +1.0 72 0 0 1014.0 1012.0
З 9-14
{16}
24 км 6 баллов +7.7 +0.5 60 +3 +3 1014.8 1012.9
З 9-13
{16}
29 км 5/5 1000 м
[]
+7.5 +0.7 62 +3 +3 1014.6 1012.7
З 10-14
{15}
30 км 8/8
[]
+6.8 -0.1 61 +1 +1 1015.2 1013.2
З 9-13
{16}
35 км 10 баллов +6.9 +0.3 63 +2 +2 1015.2 1013.3
ЮЗ 5-7
{10}
45 км 10/10
[]
+5.7 +0.5 69 +2 +2 1015.8 1013.9
З 8-10
{14}
40 км 10/10
[]
+6.5 -0.3 62 +2 +2 1015.5 1013.6
ЮЗ 3-6
{16}
40 км 10 баллов +5.3 +0.4 71 +2 +2 1016.3 1014.3 +8.6
ЮЗ 4-7
{7}
30 км 8/6
[]
+5.6 +1.0 72 +2 +2 1016.3 1014.4
ЮЗ 3-4
{7}
26 км 5/5 600 м
[]
+5.2 +1.4 76 +2 +2 1016.3 1014.4
ЮЗ 3-4
{7}
22 км 10 баллов +4.7 +1.1 77 +1 +1 1015.9 1014.0
ЮЗ 4-7
{8}
25 км 6/6
[]
+5.0 +1.7 79 +1 +1 1015.2 1013.4
ЮЗ 3-5
{6}
21 км 10/10
[]
+4.3 +1.3 81 +1 +1 1015.7 1013.8
Ю 3-5
{8}
23 км 9 баллов +5.1 +1.5 78 +2 +2 1014.3 1012.5
Ю 3-5
{6}
26 км 10/10
[]
+4.0 +1.1 81 0 0 1013.1 1011.3
Ю 3-5
{5}
35 км 10/10
[]
+4.1 +1.1 81 0 0 1012.1 1010.3
Ю 3-5
{6}
40 км 10 баллов +4.2 +1.3 81 +1 +1 1010.4 1008.6
Ю 3-7
{7}
45 км 10/10 1500 м
[]
+5.0 +1.9 80 +2 +2 1007.1 1005.4
Ю 3-6
{6}
35 км 10/10
[]
+4.5 +1.5 81 +1 +1 1009.1 1007.3
Ю 4-7
{7}
21 км морось с дождем 10 баллов +5.3 +2.5 82 +1 +1 1005.1 1003.3 +3.7 0.1 0.1
Ю 4-9
{12}
11 км дождь {ливн. осадки} 10/9 600 м
[]
+5.0 +3.5 90 +1 +1 1003.0 1001.3 3
Ю 6-10
{12}
14 км дождь {ливн. осадки} 10/8 600 м
[]
+4.9 +3.7 92 -0 -0 1000.0 998.3 2
Ю 5-12
{13}
12 км морось с дождем {ливн. осадки} 10 баллов +5.0 +3.8 92 0 0 998.5 996.6 1
ЮЗ 6-11
{13}
45 км в посл. час морось {ливн. осадки, дождь} 9/8 600 м
[]
+7.2 +4.6 84 +3 +3 996.8 994.9
Ю 6-12
{12}
35 км слаб. морось {дождь} 10/10 600 м
[]
+6.3 +4.7 89 +2 +2 996.6 994.9 0.8
ЮЗ 6-9
{13}
40 км {ливн. осадки, дождь} 6 баллов +8.3 +5.2 81 +4 +5 996.5 994.6 7
ЮЗ 6-10
{11}
22 км слаб. ливневой дождь 9/6 1000 м
[]
+8.9 +5.1 77 +5 +6 995.6 993.8
ЮЗ 6-11
{11}
20 км в посл. час дождь {ливн. осадки} 10/10 600 м
[]
+9.2 +5.1 76 +6 +6 995.1 993.2
ЮЗ 5-13
{13}
10 км морось с дождем {ливн. осадки} 10 баллов +9.0 +5.5 79 +6 +6 994.6 992.7 0.1
ЮЗ 5-10
{10}
26 км в посл. час дождь {ливн. осадки, морось} 10/10 1000 м
[]
+8.2 +5.3 82 +5 +5 995.1 993.1
ЮЗ 5-10
{12}
10 км слаб. дождь 10/6 600 м
[]
+7.6 +5.9 89 +4 +4 994.9 993.1 1
ЮЗ 4-6
{13}
17 км слаб. ливневой дождь {морось} 10 баллов +7.6 +5.8 88 +4 +4 996.4 994.4 +9.8 8
З 6-8
{9}
19 км в посл. час дождь {ливн. осадки, морось} 10/6 600 м
[]
+6.9 +5.9 93 +2 +2 997.9 995.9 0.8
З 5-8
{9}
28 км {ливн. осадки, морось} 10/10 1000 м
[]
+7.0 +5.7 91 +3 +3 1000.5 998.4
СЗ 5-7
{9}
28 км в посл. час дождь {ливн. осадки, морось} 10 баллов +7.1 +5.3 88 +3 +3 1003.0 1000.8 0.1
З 5-11
{11}
18 км {ливн. осадки, морось} 10/6 600 м
[]
+7.0 +5.3 89 +3 +3 1006.5 1004.5
З 4-5
{7}
18 км {ливн. осадки, морось} 1/1 1000 м
[]
+5.7 +4.4 91 +2 +2 1004.7 1002.5
З 8-11
{13}
30 км {ливн. осадки, морось} 10 баллов +6.9 +3.7 80 +2 +2 1008.1 1006.1 0.9
З 7-12
{12}
27 км 10/10 600 м
[]
+6.6 +3.5 81 +2 +2 1009.5 1007.4
З 7-10
{11}
20 км 10/9 600 м
[]
+6.3 +4.2 86 +1 +1 1010.9 1008.9
З 6-9
{12}
19 км 10 баллов +6.1 +4.6 90 +1 +1 1012.1 1010.1
З 4-6
{7}
27 км 10/10 600 м
[]
+6.4 +3.7 83 +3 +3 1015.0 1013.0
З 5-7
{10}
35 км 10/10 600 м
[]
+6.4 +3.4 81 +2 +2 1013.3 1011.3
З 4-6
{12}
30 км 10 баллов +6.3 +3.7 83 +3 +3 1016.2 1014.2 +5.0 0.9 9.2
З 4-7
{7}
45 км в посл. час дождь {ливн. осадки} 10/10 600 м
[]
+6.5 +3.3 80 +3 +3 1017.5 1015.5
З 3-5
{6}
40 км {ливн. осадки, морось} 10/10 600 м
[]
+6.6 +3.6 81 +4 +4 1019.2 1017.1
З 3-4
{7}
45 км {ливн. осадки, морось} 10 баллов +7.3 +3.6 77 +5 +5 1019.6 1017.6
ЮЗ 4-6
{7}
45 км {ливн. осадки, морось} 10/10 600 м
[]
+7.8 +3.1 72 +5 +5 1021.2 1019.3
З 4-6
{6}
40 км {ливн. осадки, морось} 10/10 600 м
[]
+7.9 +3.6 74 +5 +5 1020.4 1018.4
ЮЗ 5-8
{8}
35 км {ливн. осадки, морось} 8 баллов +8.4 +3.2 70 +5 +5 1021.3 1019.4
ЮЗ 5-7
{8}
35 км 9/9
[]
+9.2 +3.4 67 +6 +6 1021.0 1019.1
ЮЗ 5-8
{8}
35 км 8/8
[]
+9.5 +3.9 68 +6 +7 1020.6 1018.7
ЮЗ 5-7
{9}
35 км 10 баллов +9.2 +4.0 70 +6 +6 1020.9 1018.9
ЮЗ 3-6
{7}
45 км 10/10
[]
+9.2 +4.2 71 +7 +7 1021.1 1019.3
ЮЗ 5-7
{9}
40 км 10/10 600 м
[]
+9.3 +4.1 70 +6 +6 1021.2 1019.3
ЮЗ 3-6
{9}
35 км 10 баллов +9.3 +4.9 74 +7 +7 1021.7 1019.8 +9.7
ЮЗ 4-8
{9}
30 км 10/10
[]
+9.3 +4.7 73 +7 +7 1021.8 1020.0
ЮЗ 4-7
{8}
27 км 10/10
[]
+9.3 +4.6 72 +7 +7 1021.7 1019.8
Ю 5-11
{11}
25 км 10 баллов +9.2 +4.7 73 +6 +6 1021.2 1019.4
ЮЗ 5-9
{10}
22 км 10/10
[]
+9.1 +4.8 74 +6 +6 1020.2 1018.4
Ю 5-10
{12}
25 км 10/10
[]
+9.2 +4.6 73 +6 +6 1020.6 1018.8
ЮЗ 5-8
{12}
18 км 10 баллов +9.0 +5.0 76 +6 +6 1020.1 1018.2
ЮЗ 4-8
{9}
17 км 10/10
[]
+8.9 +5.2 78 +6 +6 1019.8 1017.9
Ю 5-9
{9}
18 км 10/10
[]
+9.0 +5.3 78 +6 +6 1019.3 1017.5
ЮЗ 5-10
{10}
16 км 10 баллов +8.8 +5.3 79 +5 +5 1018.9 1017.0
Ю 4-7
{9}
17 км 10/10 300 м
[]
+8.9 +5.5 79 +6 +6 1018.0 1016.1
Ю 5-8
{10}
17 км 10/10
[]
+8.9 +5.3 78 +6 +6 1018.3 1016.5
ЮЗ 5-8
{10}
16 км 10 баллов +9.0 +5.6 79 +6 +6 1018.2 1016.2 +8.6
Ю 5-9
{10}
15 км 10/10 300 м
[]
+9.0 +5.7 80 +6 +6 1017.6 1015.8
Ю 4-7
{8}
16 км 10/10 300 м
[]
+8.6 +5.7 82 +6 +6 1017.5 1015.7
Ю 5-8
{10}
17 км 10 баллов +9.0 +5.7 80 +6 +6 1016.9 1015.1
Ю 5-10
{10}
19 км 10/9 1500 м
[]
+10.2 +6.7 79 +7 +7 1015.7 1013.8
Ю 5-10
{10}
18 км 10/10 1000 м
[]
+9.6 +6.2 79 +6 +6 1016.0 1014.1
Ю 5-10
{11}
20 км 10 баллов +11.2 +7.4 77 +9 +9 1014.5 1012.7
Ю 6-10
{12}
23 км 10/10 1500 м
[]
+11.9 +7.5 74 +9 +9 1013.5 1011.8
Ю 7-13
{13}
35 км 10/10 1500 м
[]
+12.8 +7.6 71 +10 +10 1012.7 1010.8
Ю 5-10
{13}
35 км 10 баллов +12.5 +7.5 72 +10 +10 1011.9 1010.1
Ю 7-12
{13}
40 км 10/10 1000 м
[]
+12.4 +7.0 70 +10 +10 1010.3 1008.6
Ю 6-10
{12}
45 км 10/10 1500 м
[]
+12.8 +7.1 68 +10 +10 1011.1 1009.4
Ю 7-13
{13}
30 км 10 баллов +12.4 +6.8 69 +10 +10 1009.9 1008.0 +12.9
Ю 8-15
{16}
27 км 10/8
[]
+12.3 +6.8 69 +9 +9 1008.8 1006.8
Ю 8-16
{16}
30 км 10/10 1500 м
[]
+12.8 +6.8 67 +10 +10 1007.7 1006.0
Ю 8-13
{16}
30 км 10 баллов +13.0 +6.8 66 +10 +10 1007.3 1005.5
ЮЗ 8-13
{19}
35 км 10/10 600 м
[]
+13.2 +7.9 70 +10 +10 1006.2 1004.4
ЮЗ 10-19
{19}
30 км 10/6 1000 м
[]
+13.1 +7.3 68 +10 +10 1006.7 1004.8
ЮЗ 9-16
{19}
40 км 10 баллов +13.6 +8.1 69 +11 +11 1005.7 1003.8
ЮЗ 10-16
{17}
40 км 10/10 600 м
[]
+13.6 +8.0 69 +11 +11 1005.2 1003.3
ЮЗ 8-14
{15}
40 км в посл. час морось 10/10 600 м
[]
+13.6 +8.1 69 +11 +11 1005.0 1003.2
Ю 8-13
{17}
35 км слаб. морось с дождем 10 баллов +13.2 +8.6 74 +10 +10 1003.6 1001.8
Ю 9-17
{17}
40 км слаб. дождь {морось} 10/10 300 м
[]
+12.5 +10.0 85 +9 +9 1002.3 1000.5 0.3
Ю 9-15
{19}
14 км слаб. дождь {морось} 10/8 600 м
[]
+11.8 +9.8 88 +8 +8 1002.3 1000.4 0.5
Ю 8-16
{19}
30 км слаб. морось {дождь} 10 баллов +12.4 +10.1 86 +9 +9 1001.3 999.4 +11.7 0.2 1.1
Ю 9-17
{18}
45 км в посл. час морось 10/10 600 м
[]
+13.1 +9.8 80 +10 +10 1000.6 998.8
ЮЗ 9-14
{17}
45 км в посл. час дождь {ливн. осадки} 10/10 600 м
[]
+13.2 +9.8 80 +10 +10 1000.4 998.5 0.1
ЮЗ 8-14
{20}
25 км слаб. ливневой дождь {морось} 10 баллов +13.9 +9.4 74 +11 +11 1000.1 998.2
ЮЗ 9-16
{17}
45 км {ливн. осадки, морось} 10/10 600 м
[]
+15.3 +9.7 69 +13 +13 999.7 997.9
Ю 9-16
{18}
45 км в посл. час дождь {ливн. осадки, морось} 10/10 1000 м
[]
+14.1 +9.5 74 +12 +12 999.8 998.0
ЮЗ 11-20
{20}
45 км {ливн. осадки, морось} 10 баллов +16.1 +10.0 67 +14 +14 998.5 996.7 0.1
ЮЗ 10-20
{20}
45 км 10/9 1000 м
[]
+16.2 +10.2 68 +14 +14 997.6 995.8
ЮЗ 11-21
{21}
40 км 10/10 1500 м
[]
+16.5 +10.3 67 +15 +15 996.5 994.7
ЮЗ 8-15
{21}
40 км 10 баллов +16.3 +10.5 69 +15 +15 995.6 993.8
З 9-14
{24}
2800 м сильн. ливневой дождь {морось} 10/6 300 м
[]
+8.8 +8.5 98 +4 +4 998.9 996.5 7
ЮЗ 12-20
{24}
30 км 10/9 1000 м
[]
+16.6 +10.6 68 +15 +15 995.1 993.3
З 9-13
{24}
11 км слаб. дождь {морось} 10 баллов +8.0 +6.8 92 +3 +3 1001.2 999.2 +16.7 2
ЮЗ 9-14
{15}
18 км слаб. дождь 10/10 1500 м
[]
+8.5 +6.5 87 +4 +4 1002.1 1000.1 1
ЮЗ 8-13
{15}
45 км слаб. дождь 10/9 1000 м
[]
+8.6 +5.8 83 +4 +4 1002.5 1000.6 0.3
ЮЗ 7-12
{15}
45 км в посл. час дождь 10 баллов +8.8 +5.8 81 +5 +5 1003.4 1001.3
ЮЗ 9-16
{16}
30 км {дождь} 10/9 600 м
[]
+9.2 +5.3 77 +5 +5 1005.7 1003.7
ЮЗ 9-14
{14}
45 км {дождь} 10/9 600 м
[]
+9.0 +5.9 81 +4 +4 1004.5 1002.3
ЮЗ 8-15
{16}
17 км {дождь} 8 баллов +8.9 +3.9 71 +5 +5 1007.1 1005.0 1
ЮЗ 10-17
{17}
18 км в посл. час дождь {ливн. осадки} 6/6 1000 м
[]
+8.5 +3.5 71 +4 +4 1008.1 1006.1
ЮЗ 10-14
{15}
15 км {ливн. осадки} ясно +7.8 +2.1 67 +3 +3 1009.4 1007.3
ЮЗ 8-12
{17}
14 км {ливн. осадки} 10 баллов +7.6 +1.2 64 +3 +3 1010.2 1008.3
ЮЗ 6-11
{11}
15 км {ливн. осадки} ясно +7.1 +3.2 76 +3 +3 1010.6 1008.7
ЮЗ 6-9
{14}
16 км {ливн. осадки} ясно +7.0 +2.1 71 +3 +3 1010.5 1008.6
ЮЗ 7-11
{17}
19 км {ливн. осадки} 1 балл +7.2 +3.1 75 +3 +3 1010.6 1008.7 +6.8 1 9.5
ЮЗ 6-10
{13}
19 км ясно +6.9 +3.0 76 +3 +3 1010.8 1008.9
ЮЗ 5-10
{12}
19 км ясно +7.5 +3.2 74 +4 +4 1010.9 1008.9
ЮЗ 7-12
{13}
22 км 6 баллов +8.5 +3.5 71 +4 +5 1011.1 1009.1
ЮЗ 9-13
{15}
30 км 9/8 1000 м
[]
+9.8 +4.1 68 +6 +6 1011.4 1009.5
ЮЗ 6-11
{14}
22 км 10/10
[]
+8.8 +3.7 70 +5 +5 1011.0 1009.1
З 13-20
{20}
7000 м слаб. ливневой дождь 10 баллов +5.2 +3.5 89 -2 -2 1012.5 1010.5 0.4
ЮЗ 8-13
{17}
24 км слаб. дождь 10/6 1000 м
[]
+6.4 +4.0 85 +1 +1 1011.7 1010.1 0.5
Местоположение метеостанции Вунстдрехт (Нидерланды): широта 51.45 долгота 4.33 высота над уровнем моря 17 м.
В архиве по умолчанию представлена погода в Вунстдрехте за последнюю неделю. Архивные данные за месяц целиком и за предыдущие месяцы, начиная с января 2011 года, Вы можете получить, выбрав интересующий диапазон дат из раскрывающегося списка и нажав кнопку "Найти!".
*Определитесь, кто Вы:
Внимание! Время в таблицах - всемирное. Для получения местного времени необходимо прибавить поправку, которая равна 1 ч.
Смотрите также архив погоды в соседних городах и на ближайших метеорологических станциях:
Партнеры нашего сайта:      
Пояснения к столбцам:
  • Ветер - указаны скорость ветра в м/с - средняя за 10 мин, порывы в срок и между сроками (в фигурных скобках) и направление, откуда дует ветер: С - северный,
  • СВ - северо-восточный, В - восточный, ЮВ - юго-восточный, Ю - южный, ЮЗ - юго-западный, З - западный, СЗ - северо-западный.
  • Видимость - горизонтальная дальность видимости в метрах или километрах. При видимости от 1 до 10 км при отсутствии осадков обычно наблюдается дымка, при ухудшении видимости до 1 км и менее - туман. В сухую погоду видимость может ухудшаться дымом, пылью или мглою.
  • Явления - указаны атмосферные явления, наблюдавшиеся в срок или в последний час перед сроком; фигурными скобками обозначены явления, наблюдавшиеся между сроками (за 1-3 часа до срока); квадратными скобками обозначены град или гололедные отложения с указанием их диаметра в мм.
  • Облачность - указаны через наклонную черту общая и нижняя облачность в баллах и высота нижней границы облаков в метрах; квадратными скобками обозначены формы облаков: Ci - перистые, Cs - перисто-слоистые, Cc - перисто-кучевые, Ac - высококучевые, As - высокослоистые, Sc - слоисто-кучевые, Ns - слоисто-дождевые, Cu - кучевые, Cb - кучево-дождевые. Подробнее классификацию облаков см. в Атласе облаков (PDF).
  • T - Температура воздуха - температура, измеренная на высоте 2 м над землей.
  • Td - Температура точки росы - температура, при понижении до которой содержащийся в воздухе водяной пар достигнет насыщения.
  • f - Относительная влажность воздуха - влажноcть воздуха, измеренная на высоте 2 м над землей.
  • Te - Эффективная температура - температура, которую ощущает одетый по сезону человек в тени. Характеристика душности погоды. При расчете учитывается влияние влажности воздуха и скорости ветра на теплоощущения человека.
  • Tes - Эффективная температура на солнце - температура, которую ощущает человек, с поправкой на солнечный нагрев. Характеристика знойности погоды. Зависит от высоты солнца над горизонтом, облачности и скорости ветра. Ночью, в пасмурную погоду, а также при ветре 12 м/с и более поправка равна нулю.
  • P - Атмосферное давление - приведенное к уровню моря атмосферное давление.
  • Po - Атмосферное давление - измеренное на уровне метеостанции атмосферное давление.
  • Tmin - Минимальная температура - минимум температуры воздуха на высоте 2 м над землей.
  • Tmax - Максимальная температура - максимум температуры воздуха на высоте 2 м над землей.
  • R - Количество осадков - Количество выпавших осадков за период времени, мм. При наведении курсора мыши на число - период времени, за который выпало указанное количество осадков.
  • R24 - Количество осадков - Количество выпавших осадков за 24 часа, мм.
  • S - Снежный покров - Высота снежного покрова, см. При наведении курсора мыши на число - состояние снежного покрова и степень покрытия местности в баллах.